www.pogodaiklimat.ru

Погода и климат >> Архив погоды >> Вьетнам >> Хуентран


ПОГОДА в Хуентране

  • Прогноз погоды в Хуентране
  • Монитор погоды в Хуентране

АРХИВ ПОГОДЫ в Хуентране

Время (UTC), дата Ветер
(напр.,м/с)
 
Видим.   Явления Облачность Т
(С)
Тd
(С)
f
(%)
Тe
(С)
Тes
(С)
Комфортность P
(гПа)
Po
(гПа)
Тmin
(С)
Tmax
(С)
R
(мм)
R24
(мм)
S
(см)
00 12.06 З 6 20 км 9/4 600 м
[Cu Sc Cs]
+29.8 +30.3 100 +54 +55 опасность
перегрева
1010.9 1008.7 +28.7
06 12.06 ЮЗ 4 20 км 9/3
[Cu med, cong Cs]
+30.1 +30.2 100 +56 +63 опасность
перегрева
1010.0 1007.8
12 12.06 ЮЗ 4 20 км {гроза} 9/9 300 м
[Cu med, cong Ac inh Cc]
+29.6 +26.4 83 +45 +45 опасность
перегрева
1009.5 1007.3 0.9 0.9
18 12.06 ЮЗ 6 20 км 9/3
[Cb cap Cs]
+29.4 1010.3 1008.1
00 13.06 ЮЗ 5 20 км 9/3 600 м
[Cu med, cong Cs]
+29.1 +30.2 100 +51 +52 опасность
перегрева
1010.8 1008.6 +29.1
06 13.06 З 11 20 км 9/5
[Cb cap Cs]
+30.1 +30.4 100 +56 +56 опасность
перегрева
1010.1 1007.9
12 13.06 ЮЗ 10 20 км {метель} 8/5 300 м
[Cb cap Ac inh Cs]
+27.1 +24.3 85 +38 +38 очень
душно
1010.3 1008.1 3 3
18 13.06 З 6 20 км 9/4
[Cb cap Cs]
+29.2 1010.1 1007.9
00 14.06 ЮЗ 6 20 км 9/3 300 м
[Cu med, cong Cs]
+29.8 1010.4 1008.2 +27.1
06 14.06 З 7 20 км 9/9
[Cb cap]
+30.1 1009.9 1007.7
12 14.06 З 4 20 км 8/8 600 м
[Cb cap]
+29.6 1010.2 1008.0 +30.1
18 14.06 ЮЗ 5 20 км 9/3
[Cb cap Cs]
+29.2 1010.3 1008.1
00 15.06 З 7 20 км 9/4 600 м
[Cu Sc Cs]
+30.0 +30.3 100 +55 +56 опасность
перегрева
1010.1 1007.9 +28.6
06 15.06 З 6 20 км 9/3
[Cu med, cong Cs]
+30.4 +30.3 99 +57 +61 опасность
перегрева
1009.3 1007.1
12 15.06 З 8 20 км 8/8 300 м
[Cb cap]
+28.2 +30.3 100 +47 +47 опасность
перегрева
1009.7 1007.5 +30.4
18 15.06 З 10 20 км 9/4
[Cb cap Cs]
+29.9 1009.3 1007.1
00 16.06 З 10 20 км 9/9 600 м
[Cb cap]
+30.0 +30.4 100 +55 +55 опасность
перегрева
1010.5 1008.3 +28.2
06 16.06 З 7 10 км слаб. дождь 10/10 600 м
[Cb cap]
+27.8 +25.1 85 +40 +40 очень
душно
1010.2 1008.0 12
12 16.06 ЮЗ 8
{23}
20 км {дождь} 9/9 600 м
[Cb cap]
+28.6 +25.6 84 +42 +42 опасность
перегрева
1010.2 1008.0 +30.1 13 13
18 16.06 З 10 20 км 8/8
[Cb cap]
+28.0 1010.1 1007.9
00 17.06 З 5 20 км 9/9 600 м
[Cb cap]
+29.1 1010.8 1008.6 +26.1
06 17.06 З 5 20 км 9/5 600 м
[Cb cap Cs]
+30.0 1010.7 1008.5
12 17.06 З 4 20 км 9/4 300 м
[Cb cap Cs]
+28.1 1010.8 1008.6 +30.0
18 17.06 ЮЗ 3 10 км {дождь} 9/9 600 м
[Cb cap]
+28.4 +25.5 84 +42 +42 опасность
перегрева
1010.4 1008.2 2
00 18.06 З 9
{16}
20 км 8/8 300 м
[Cb cap]
+28.3 1010.9 1008.7 +2.7 2
06 18.06 З 6 20 км 9/4 300 м
[Cb cap Cs]
+29.9 1010.3 1008.1 2
12 18.06 З 7 20 км 9/3 600 м
[Cb cap Cs]
+29.4 1010.0 1007.8 +3.0 2
18 18.06 З 8 20 км 9/3
[Cb cap Cs]
+29.5 1010.2 1008.0

 

Местоположение метеостанции Хуентран (Вьетнам): широта 8.07 долгота 110.50 высота над уровнем моря 19 м.

В архиве по умолчанию представлена погода в Хуентране за последнюю неделю. Архивные данные за месяц целиком и за предыдущие месяцы, начиная с января 2011 года, Вы можете получить, выбрав интересующий диапазон дат из раскрывающегося списка и нажав кнопку "Ввод!".


*Определитесь, кто Вы:
робот инопланетянин человек

Внимание! Время в таблицах - всемирное. Для получения местного времени необходимо прибавить поправку, которая равна 7 ч.

Смотрите также архив погоды в соседних городах и на ближайших метеорологических станциях:

Погода в Чыонгша (Вьетнам) (168 км)
Погода в Фантхьете (Вьетнам) (413 км)
Погода в Коншоне (Вьетнам) (434 км)
Погода в Нячанге (Вьетнам) (483 км)
Погода на Наньша Дао (Хайнань, Китай) (496 км)
Погода в Хабе (Вьетнам) (504 км)
Погода в Ранаи (Индонезия) (515 км)
Погода в Сонгтутау (Вьетнам) (561 км)
Погода в Мири (Малайзия) (567 км)
Погода в Буонметхуоте (Вьетнам) (577 км)

Пояснения к столбцам:

Ветер - указаны скорость ветра в м/с - средняя за 10 мин, порывы в срок и между сроками (в фигурных скобках) и направление, откуда дует ветер: С - северный, СВ - северо-восточный, В - восточный, ЮВ - юго-восточный, Ю - южный, ЮЗ - юго-западный, З - западный, СЗ - северо-западный.
Видимость - горизонтальная дальность видимости в метрах или километрах. При видимости от 1 до 10 км при отсутствии осадков обычно наблюдается дымка, при ухудшении видимости до 1 км и менее - туман. В сухую погоду видимость может ухудшаться дымом, пылью или мглою.
Явления - указаны атмосферные явления, наблюдавшиеся в срок или в последний час перед сроком; фигурными скобками обозначены явления, наблюдавшиеся между сроками (за 1-3 часа до срока); квадратными скобками обозначены град или гололедные отложения с указанием их диаметра в мм.
Облачность - указаны через наклонную черту общая и нижняя облачность в баллах и высота нижней границы облаков в метрах; квадратными скобками обозначены формы облаков: Ci - перистые, Cs - перисто-слоистые, Cc - перисто-кучевые, Ac - высококучевые, As - высокослоистые, Sc - слоисто-кучевые, Ns - слоисто-дождевые, Cu - кучевые, Cb - кучево-дождевые. Подробнее классификацию облаков см. в Атласе облаков (PDF).
T - Температура воздуха - температура, измеренная на высоте 2 м над землей.
Td - Температура точки росы - температура, при понижении до которой содержащийся в воздухе водяной пар достигнет насыщения.
f - Относительная влажность воздуха - влажноcть воздуха, измеренная на высоте 2 м над землей.
Te - Эффективная температура - температура, которую ощущает одетый по сезону человек в тени. Характеристика душности погоды. При расчете учитывается влияние влажности воздуха и скорости ветра на теплоощущения человека.
Tes - Эффективная температура на солнце - температура, которую ощущает человек, с поправкой на солнечный нагрев. Характеристика знойности погоды. Зависит от высоты солнца над горизонтом, облачности и скорости ветра. Ночью, в пасмурную погоду, а также при ветре 12 м/с и более поправка равна нулю.
P - Атмосферное давление - приведенное к уровню моря атмосферное давление.
Po - Атмосферное давление - измеренное на уровне метеостанции атмосферное давление.
Tmin - Минимальная температура - минимум температуры воздуха на высоте 2 м над землей.
Tmax - Максимальная температура - максимум температуры воздуха на высоте 2 м над землей.
R - Количество осадков - Количество выпавших осадков за период времени, мм. При наведении курсора мыши на число - период времени, за который выпало указанное количество осадков.
R24 - Количество осадков - Количество выпавших осадков за 24 часа, мм.
S - Снежный покров - Высота снежного покрова, см. При наведении курсора мыши на число - состояние снежного покрова и степень покрытия местности в баллах.